TimeCST,TemperatureF,Dew PointF,Humidity,Sea Level PressureIn,VisibilityMPH,Wind Direction,Wind SpeedMPH,Gust SpeedMPH,PrecipitationIn,Events,Conditions,WindDirDegrees,DateUTC
12:53 AM,21.9,19.0,89,30.33,10.0,NNE,5.8,-,N/A,,Clear,20,2012-11-28 06:53:00
1:53 AM,19.0,17.1,92,30.33,10.0,Calm,Calm,-,N/A,,Clear,0,2012-11-28 07:53:00
2:53 AM,17.1,14.0,88,30.33,9.0,North,4.6,-,N/A,,Clear,360,2012-11-28 08:53:00
3:53 AM,19.9,18.0,92,30.35,9.0,Calm,Calm,-,N/A,,Clear,0,2012-11-28 09:53:00
4:53 AM,17.1,14.0,88,30.35,9.0,NNE,5.8,-,N/A,,Clear,20,2012-11-28 10:53:00
5:53 AM,17.1,14.0,88,30.37,9.0,North,4.6,-,N/A,,Clear,350,2012-11-28 11:53:00
6:53 AM,14.0,12.0,92,30.40,9.0,Calm,Calm,-,N/A,,Clear,0,2012-11-28 12:53:00
7:53 AM,16.0,12.9,88,30.40,6.0,Calm,Calm,-,N/A,,Clear,0,2012-11-28 13:53:00
8:53 AM,23.0,19.0,85,30.38,9.0,Calm,Calm,-,N/A,,Clear,0,2012-11-28 14:53:00
9:53 AM,30.9,25.0,79,30.38,10.0,Calm,Calm,-,N/A,,Clear,0,2012-11-28 15:53:00
10:53 AM,36.0,25.0,64,30.37,10.0,Calm,Calm,-,N/A,,Clear,0,2012-11-28 16:53:00
11:53 AM,42.1,26.1,53,30.34,10.0,Variable,3.5,-,N/A,,Clear,0,2012-11-28 17:53:00
12:53 PM,48.9,25.0,39,30.27,10.0,South,6.9,-,N/A,,Clear,180,2012-11-28 18:53:00
1:53 PM,52.0,26.1,37,30.22,10.0,SE,6.9,-,N/A,,Clear,130,2012-11-28 19:53:00
2:53 PM,55.0,26.1,33,30.19,10.0,South,10.4,-,N/A,,Clear,170,2012-11-28 20:53:00
3:53 PM,54.0,26.1,34,30.16,10.0,South,10.4,-,N/A,,Clear,190,2012-11-28 21:53:00
4:53 PM,50.0,26.1,39,30.16,10.0,SSE,6.9,-,N/A,,Clear,160,2012-11-28 22:53:00
5:53 PM,44.1,25.0,47,30.17,10.0,Calm,Calm,-,N/A,,Clear,0,2012-11-28 23:53:00
6:53 PM,37.0,24.1,59,30.19,10.0,Calm,Calm,-,N/A,,Clear,0,2012-11-29 00:53:00
7:53 PM,33.1,21.9,64,30.18,10.0,Calm,Calm,-,N/A,,Clear,0,2012-11-29 01:53:00
8:53 PM,36.0,25.0,64,30.15,10.0,Calm,Calm,-,N/A,,Clear,0,2012-11-29 02:53:00
9:53 PM,39.0,26.1,60,30.12,10.0,WSW,6.9,-,N/A,,Clear,240,2012-11-29 03:53:00
10:53 PM,39.9,26.1,58,30.10,10.0,SW,9.2,-,N/A,,Clear,230,2012-11-29 04:53:00
11:53 PM,32.0,24.1,73,30.09,10.0,WNW,4.6,-,N/A,,Clear,290,2012-11-29 05:53:00